Terug naar catalogus

KUIPER-00468

ActiefCommunicatieLEO
NORAD 68873·PAYLOAD·🇺🇸 United States

Gelanceerd Apr 28, 2026 vanaf Cape Canaveral Space Force Station

Loading…

Volgende Passages (komende 24 uur)

TLE

VersSource: CelesTrak SupGP

Epoch: Sep 15, 2026, 02:42 UTC

1 68873C 26095K   26258.11256944  .00001412  00000+0  19991-3 0  2586
2 68873  51.8970 190.4972 0000886 159.0016 304.5179 14.76617761    16

Volg KUIPER-00468 in realtime met AllMySat

Download on the App Store